[ hide orbit diagram ]
For accurate long-term ephemerides, please instead use our Horizons system.This orbit viewer was implemented using two-body methods, and hence should not be used for determining accurate long-term trajectories (over several years or decades) or planetary encounter circumstances.
Orbital Elements at Epoch 2459200.5 (2020-Dec-17.0) TDB
Reference: JPL 23 (heliocentric ecliptic J2000)
Element | Value | Uncertainty (1-sigma) | Units |
e | .09700466872584775 | 3.9116e-08 | |
a | 2.617303367011975 | 1.3335e-08 | au |
q | 2.363412720939932 | 1.0108e-07 | au |
i | 2.732683375291348 | 4.2473e-06 | deg |
node | 79.372893422468 | 8.9536e-05 | deg |
peri | 270.0987519701744 | 9.2213e-05 | deg |
M | 108.8804387791943 | 2.1693e-05 | deg |
tp | 2458732.735903460528 (2019-Sep-06.23590346) | 9.2845e-05 | TDB |
period | 1546.605401689365 4.23 | 1.182e-05 3.236e-08 | d yr |
n | .2327678408511765 | 1.7789e-09 | deg/d |
Q | 2.871194013084017 | 1.4629e-08 | au |
|
| | Orbit Determination Parameters
Additional Information
|
[ show covariance matrix ]
Physical Parameter Table
Parameter |
Symbol |
Value |
Units |
Sigma |
Reference |
Notes |
absolute magnitude |
H |
15.8 |
|
n/a |
MPO259815 |
|
|
78464 (2002 RC42) Discovered 2002-Sep-05 by LINEAR at Socorro |
Reference: 20040415/Numbers.arc | Last Updated: 2004-04-19 |
|
[ hide close-approach data ]
Close-Approach Data ...sorted by Date/Time (TDB)
|
Date/Time (TDB) |
Time Uncertainty (days_HH:MM) |
Body |
Nominal Distance (au) |
Minimum Distance (au) |
Maximum Distance (au) |
V-relative (km/s) |
V-infinity (km/s) |
JD (TDB) |
Time Uncertainty (minutes) |
Semi-major axis (km) |
Semi-minor axis (km) |
range-LOV angle (deg) |
N-sigma |
BP |
Orbit Ref. |
Reference |
Modified |
1945-May-10 12:18 |
00:10 |
Europ |
0.029658057612926 |
0.0296563330733864 |
0.029659785952318 |
2.576707886087 |
2.57670774700727 |
2431586.012644776 |
9.74192600257141 |
593.359162363074 |
37.4218771990558 |
82.4868111341986 |
117357.731834345 |
T |
23 |
CATAB v2.0f-lin.ifort 2021-Feb-24 07:15:14 |
2021-Feb-24 07:15 |
1983-Jun-01 08:33 |
00:04 |
Europ |
0.013998816396548 |
0.0139969505959561 |
0.0140006836646842 |
2.50286375955802 |
2.50286345620857 |
2445486.856305638 |
4.17073480486299 |
262.260915760414 |
36.4130122351448 |
-70.784603604567 |
54276.5198634542 |
T |
23 |
CATAB v2.0f-lin.ifort 2021-Feb-24 07:15:14 |
2021-Feb-24 07:15 |
|
|